IZ3VCM Weather Reports


Display with metric or nautical units.
time (UTC)temp
F
wind
direction
speed
MPH
gust
MPH
rain 1hr
in
rain 24hr
in
rain mn
in
humidity
%
barometer
mb
20260504200006 65 0 0.0 0.0 0.00 0.00 0.00 60 1015.0
20260504194504 65 181 1.0 3.0 0.00 0.00 0.00 59 1015.0
20260504193006 65 0 0.0 0.0 0.00 0.00 0.00 58 1014.9
20260504191504 66 0 0.0 0.0 0.00 0.00 0.00 56 1014.8
20260504190006 67 0 0.0 0.0 0.00 0.00 0.00 55 1014.7
20260504184503 69 181 1.0 2.0 0.00 0.00 0.00 52 1014.7
20260504183006 69 168 0.0 2.0 0.00 0.00 0.00 52 1014.6
20260504181503 71 165 2.0 4.0 0.00 0.00 0.00 49 1014.6
20260504180005 72 165 6.0 8.0 0.00 0.00 0.00 48 1014.4
20260504174504 74 144 2.0 4.0 0.00 0.00 0.00 45 1014.3
20260504173006 77 161 4.0 8.0 0.00 0.00 0.00 42 1014.2
20260504171504 82 0 0.0 0.0 0.00 0.00 0.00 31 1014.1
20260504081503 74 0 0.0 0.0 0.00 0.00 0.00 58 1017.2
20260503221504 56 0 0.0 0.0 0.00 0.00 0.00 83 1016.4
20260503220006 56 0 0.0 0.0 0.00 0.00 0.00 82 1016.2
20260503214504 57 0 0.0 0.0 0.00 0.00 0.00 81 1016.1
20260503213006 57 0 0.0 0.0 0.00 0.00 0.00 79 1016.1
20260503211503 58 0 0.0 0.0 0.00 0.00 0.00 78 1016.1
20260503210006 60 0 0.0 0.0 0.00 0.00 0.00 75 1016.1
20260503204503 61 0 0.0 0.0 0.00 0.00 0.00 74 1016.2
20260503203006 62 0 0.0 0.0 0.00 0.00 0.00 72 1016.2
20260503201503 62 0 0.0 0.0 0.00 0.00 0.00 71 1016.1